This demonstration page uses our WeatherBlox Daily Observations layout. Learn more.

Left ArrowRight Arrow

41.12389, -100.76542

Hourly Observations for September 8, 2017

Temp ( °F °C ) Dew Point ( °F °C ) Humidity (%) Winds ( mph kmh ) Pressure ( in mb ) Visibility ( mi km ) Precip ( " mm )
12:53 am 00:53 Clear 57 13.9 54 12.2 90 90 ESE 7 11 29.98 1015 10 16 0.00 0.00
1:53 am 01:53 Clear 57 13.9 54 12.2 90 90 ESE 5 7 29.97 1015 10 16 0.00 0.00
2:53 am 02:53 Clear 55 12.8 53 11.7 93 93 E 6 9 29.96 1015 10 16 0.00 0.00
3:53 am 03:53 Clear 55 12.8 52 11.1 90 90 E 7 11 29.95 1014 10 16 0.00 0.00
4:53 am 04:53 Clear 52 11.1 50 10 93 93 E 5 7 29.98 1015 10 16 0.00 0.00
5:53 am 05:53 Clear 51 10.6 49 9.4 92 92 Calm 29.98 1015 10 16 0.00 0.00
6:53 am 06:53 Clear 52 11.1 50 10 93 93 Calm 30.00 1016 10 16 0.00 0.00
7:53 am 07:53 Sunny 50 10 49 9.4 96 96 Calm 30.04 1017 10 16 0.00 0.00
8:53 am 08:53 Sunny 59 15 54 12.2 83 83 Calm 30.04 1017 10 16 0.00 0.00
9:53 am 09:53 Sunny 64 17.8 56 13.3 75 75 Calm 30.04 1017 10 16 0.00 0.00
10:53 am 10:53 Sunny 72 22.2 57 13.9 59 59 S 3 6 30.04 1017 10 16 0.00 0.00
11:53 am 11:53 Sunny 76 24.4 57 13.9 52 52 VRB 5 7 30.03 1017 10 16 0.00 0.00
12:53 pm 12:53 Sunny 82 27.8 55 12.8 40 40 ESE 12 19 30.01 1016 10 16 0.00 0.00
1:53 pm 13:53 Sunny 86 30 57 13.9 37 37 SE 15 24 29.98 1015 10 16 0.00 0.00
2:53 pm 14:53 Sunny 88 31.1 58 14.4 36 36 ESE 14 22 29.96 1015 10 16 0.00 0.00
3:53 pm 15:53 Sunny 89 31.7 55 12.8 31 31 SE 12 19 29.95 1014 10 16 0.00 0.00
4:53 pm 16:53 Sunny 86 30 56 13.3 36 36 SSE 10 17 29.97 1015 10 16 0.00 0.00
5:53 pm 17:53 Sunny 82 27.8 59 15 46 46 SE 8 13 29.97 1015 10 16 0.00 0.00
6:53 pm 18:53 Sunny 78 25.6 61 16.1 56 56 E 8 13 29.98 1015 10 16 0.00 0.00
7:53 pm 19:53 Sunny 69 20.6 60 15.6 73 73 ESE 6 9 30.00 1016 10 16 0.00 0.00
8:53 pm 20:53 Clear 64 17.8 57 13.9 78 78 E 7 11 30.01 1016 10 16 0.00 0.00
9:53 pm 21:53 Clear 64 17.8 57 13.9 78 78 E 9 15 30.02 1017 10 16 0.00 0.00
10:53 pm 22:53 Clear 61 16.1 56 13.3 84 84 ESE 7 11 30.01 1016 10 16 0.00 0.00
11:53 pm 23:53 Clear 61 16.1 57 13.9 87 87 ESE 7 11 30.00 1016 10 16 0.00 0.00

Powered by AerisWeather